Other Public Products
Issued by NWS Charleston, SC

Current Version | Previous Version | Text Only | Print | Product List | Glossary Off
Versions: 1 2 3 4 5 6 7 8 9 10 11 12 13 14 15 16 17 18 19 20 21 22 23 24 25 26 27 28 29 30 31 32 33 34 35 36 37 38 39 40 41 42 43 44 45 46 47 48 49 50

000
FPUS82 KCHS 161012
OPUCHS

TEST...KCHS/KSAV Gateway Observations...TEST
National Weather Service Charleston SC
500 AM EST MON JAN 16 2017

NOTE: "fair" indicates few or no clouds below 12,000 feet with no
significant weather and/or obstructions to visibility.

SCZ050-WAZ558-NCZ071-TXZ119-213-PAZ071-DCZ001-FLZ074-172-MI076-
NYZ176-178-MAZ016-IL014-TNZ027-NJZ106-GAZ044-MD014-161100-
...Gateway Observations for Charleston International...

CITY           SKY/WX    TMP DP  RH WIND       PRES   REMARKS
Chas Airport   FOG       58  57  97 NE5       30.29R VSB 1/4
Seattle        MOCLDY    34  28  79 CALM      30.25F
Charlotte      CLOUDY    52  45  77 NE6       30.32S
Dallas DFW     PTCLDY    48  48 100 SW6       29.91R FOG
Dallas Love    PTCLDY    52  51  97 SE5       29.92R
Philladelphia  CLEAR     27  19  72 N5        30.46F WCI  22
Wash National  CLOUDY    39  27  62 E6        30.45S WCI  35
Baltimore      CLOUDY    34  26  72 E5        30.45S WCI  30
Miami          PTCLDY    73  61  65 E8        30.17S
Detroit        CLOUDY    21  17  84 CALM      30.34F FOG
Newark         CLEAR     27  19  72 NE5       30.44F WCI  22
Laguardia      CLEAR     32  18  56 N3        30.44F
J F K          CLEAR     30  19  63 N5        30.45F WCI  25
Boston Logan   CLEAR     24  12  60 CALM      30.44S
Ft. Lauderdale MOCLDY    73  63  70 E14       30.16S
Chicago O`Hare LGTSLEET  32  29  88 CALM      30.27S
Chicago Midway CLOUDY    34  26  72 CALM      30.28S
Houston Bush   CLOUDY    68  64  87 SE6       29.97S
Houston Hobby  CLOUDY    68  65  90 SE5       29.96S
Nashville      FOG       50  49  96 CALM      30.22F VSB 1/4
Atlanta        MOCLDY    56  48  74 E3        30.25R

$$

GAZ044-118-TXZ119-213-NCZ071-DCZ001-MDZ014-506-PAZ021-071-NJZ106-
NYZ176-178-MAZ106-OHZ011-021-055-MIZ076-KYZ091-ILZ014-INZ047-
MNZ060-161100-
...Gateway Observations for Savannah International...

CITY           SKY/WX    TMP DP  RH WIND       PRES   REMARKS
Savannah Arpt  MOCLDY    54  51  90 CALM      30.27R
Atlanta        MOCLDY    56  48  74 E3        30.25R
Charlotte      CLOUDY    52  45  77 NE6       30.32S
Dallas DFW     PTCLDY    48  48 100 SW6       29.91R FOG
Houston Bush   CLOUDY    68  64  87 SE6       29.97S
Wash National  CLOUDY    39  27  62 E6        30.45S WCI  35
Wash Dulles    CLOUDY    39  26  59 CALM      30.43R
Baltimore      CLOUDY    34  26  72 E5        30.45S WCI  30
Philadelphia   CLEAR     27  19  72 N5        30.46F WCI  22
Newark         CLEAR     27  19  72 NE5       30.44F WCI  22
Laguardia      CLEAR     32  18  56 N3        30.44F
J F K          CLEAR     30  19  63 N5        30.45F WCI  25
Boston         CLEAR     24  12  60 CALM      30.44S
Pittsburg      CLOUDY    25  22  88 CALM      30.33S
Akron          CLOUDY    25  19  78 E3        30.33S
Cleveland      MOCLDY    24  18  77 SE3       30.36F
Cincinnati     FOG       38  38 100 E7        30.26F VSB 1/2 WCI  33
Columbus         N/A     33  32  96 E5        30.32S WCI  28
Detroit        CLOUDY    21  17  84 CALM      30.34F FOG
Chicago O`Hare LGTSLEET  32  29  88 CALM      30.27S
Minneapolis    MOCLDY    16  11  80 E5        30.19F WCI   9
Indianapolis   CLOUDY    36  33  89 E8        30.25F FOG     WCI  30

$$




USA.gov is the U.S. government's official web portal to all federal, state and local government web resources and services.